FW9022 Weather Reports


Display with metric or nautical units.
time (UTC)temp
F
wind
direction
speed
MPH
gust
MPH
rain 1hr
in
rain 24hr
in
rain mn
in
humidity
%
barometer
mb
20260503191833 63 35 1.0 4.0 0.00 0.00 0.00 41 1016.5
20260503190842 62 72 0.0 4.0 0.00 0.00 0.00 41 1016.8
20260503185821 62 211 1.0 5.0 0.00 0.00 0.00 40 1016.9
20260503184835 62 80 0.0 5.0 0.00 0.00 0.00 40 1016.9
20260503183828 61 40 1.0 4.0 0.00 0.00 0.00 40 1016.9
20260503182826 61 57 0.0 5.0 0.00 0.00 0.00 41 1017.1
20260503181820 61 69 1.0 6.0 0.00 0.00 0.00 42 1017.1
20260503180845 61 360 0.0 4.0 0.00 0.00 0.00 42 1017.4
20260503175829 61 300 1.0 4.0 0.00 0.00 0.00 42 1017.4
20260503174824 60 260 1.0 4.0 0.00 0.00 0.00 42 1017.4
20260503173837 59 60 3.0 6.0 0.00 0.00 0.00 44 1017.8
20260503172832 58 40 1.0 6.0 0.00 0.00 0.00 44 1018.3
20260503171831 58 46 2.0 6.0 0.00 0.00 0.00 46 1018.3
20260503170855 58 18 3.0 6.0 0.00 0.00 0.00 46 1018.2
20260503150844 54 144 1.0 2.0 0.00 0.00 0.00 53 1019.6
20260503130834 48 234 0.0 2.0 0.00 0.00 0.00 71 1019.9
20260503080909 36 235 0.0 0.0 0.00 0.00 0.00 91 1016.8
20260503072835 37 234 0.0 0.0 0.00 0.00 0.00 90 1016.5
20260503071830 37 234 0.0 0.0 0.00 0.00 0.00 90 1016.5
20260503070839 37 234 0.0 0.0 0.00 0.00 0.00 90 1016.5
20260503054823 39 235 0.0 0.0 0.00 0.00 0.00 86 1016.4
20260503053857 39 234 0.0 0.0 0.00 0.00 0.00 86 1016.5
20260503052849 39 235 0.0 0.0 0.00 0.00 0.00 85 1016.3
20260503051821 40 235 0.0 0.0 0.00 0.00 0.00 84 1016.3
20260503050910 40 235 0.0 0.0 0.00 0.00 0.00 84 1015.9
20260503045828 40 234 0.0 0.0 0.00 0.00 0.00 83 1015.9
20260503044823 41 235 0.0 0.0 0.00 0.00 0.00 82 1015.9
20260503043822 41 235 0.0 0.0 0.00 0.00 0.00 82 1015.9
20260503042836 41 235 0.0 0.0 0.00 0.00 0.00 81 1015.7
20260503041830 42 234 0.0 0.0 0.00 0.00 0.00 80 1015.7
20260503040836 42 235 0.0 0.0 0.00 0.00 0.00 78 1015.9
20260503035819 42 234 0.0 0.0 0.00 0.00 0.00 78 1015.7
20260503034833 42 235 0.0 1.0 0.00 0.00 0.00 77 1015.7
20260503033848 43 235 0.0 1.0 0.00 0.00 0.00 77 1015.4
20260503032820 43 235 0.0 0.0 0.00 0.00 0.00 76 1015.3
20260503031818 43 234 0.0 1.0 0.00 0.00 0.00 75 1015.3
20260503030844 44 235 0.0 0.0 0.00 0.00 0.00 75 1015.4
20260503025824 44 235 0.0 0.0 0.00 0.00 0.00 73 1015.4
20260503024822 45 235 0.0 0.0 0.00 0.00 0.00 71 1015.4
20260503023857 45 234 0.0 0.0 0.00 0.00 0.00 71 1015.1
20260503022848 46 235 0.0 2.0 0.00 0.00 0.00 69 1015.0
20260503021822 46 235 0.0 0.0 0.00 0.00 0.00 67 1015.0
20260503020908 47 235 0.0 1.0 0.00 0.00 0.00 65 1014.7
20260503015830 48 235 0.0 0.0 0.00 0.00 0.00 64 1014.5
20260503014825 49 235 0.0 1.0 0.00 0.00 0.00 62 1014.5
20260503013820 49 235 0.0 0.0 0.00 0.00 0.00 60 1014.3
20260503012817 50 234 0.0 1.0 0.00 0.00 0.00 57 1014.8
20260503011831 51 235 0.0 2.0 0.00 0.00 0.00 55 1014.8
20260503010836 52 355 0.0 0.0 0.00 0.00 0.00 53 1014.7
20260503005820 53 355 0.0 2.0 0.00 0.00 0.00 52 1014.4
20260503004834 53 355 1.0 3.0 0.00 0.00 0.00 48 1014.4
20260503003828 53 314 1.0 4.0 0.00 0.00 0.00 47 1014.3
20260503002821 53 346 1.0 4.0 0.00 0.00 0.00 48 1014.0
20260503001820 54 360 0.0 2.0 0.00 0.00 0.00 49 1014.0
20260503000844 54 360 0.0 3.0 0.00 0.00 0.00 47 1013.7
20260502235843 55 22 0.0 3.0 0.00 0.00 0.00 46 1013.5
20260502234836 55 355 0.0 6.0 0.00 0.00 0.00 44 1013.5
20260502233835 56 299 3.0 6.0 0.00 0.00 0.00 43 1013.2
20260502232828 56 291 0.0 4.0 0.00 0.00 0.00 42 1012.9
20260502231822 56 315 2.0 7.0 0.00 0.00 0.00 41 1012.9
20260502230907 57 48 5.0 9.0 0.00 0.00 0.00 43 1012.7
20260502225828 57 14 4.0 13.0 0.00 0.00 0.00 41 1012.6
20260502224823 57 25 4.0 6.0 0.00 0.00 0.00 41 1012.6
20260502223856 57 355 5.0 9.0 0.00 0.00 0.00 41 1012.6
20260502222831 57 5 0.0 4.0 0.00 0.00 0.00 44 1012.5
20260502221823 57 349 2.0 6.0 0.00 0.00 0.00 43 1012.5
20260502220847 57 355 2.0 6.0 0.00 0.00 0.00 41 1012.2
20260502215826 57 277 3.0 10.0 0.00 0.00 0.00 40 1012.1
20260502214825 57 318 1.0 9.0 0.00 0.00 0.00 42 1012.1
20260502213820 57 355 4.0 10.0 0.00 0.00 0.00 42 1011.8
20260502212831 57 338 2.0 7.0 0.00 0.00 0.00 43 1011.6
20260502211828 57 360 0.0 10.0 0.00 0.00 0.00 43 1011.6
20260502210833 57 29 2.0 9.0 0.00 0.00 0.00 42 1011.4
20260502205832 58 9 3.0 10.0 0.00 0.00 0.00 42 1011.2
20260502204826 59 360 4.0 8.0 0.00 0.00 0.00 40 1011.2
20260502203824 59 355 3.0 12.0 0.00 0.00 0.00 39 1011.2
20260502202858 60 305 3.0 10.0 0.00 0.00 0.00 40 1011.2
20260502201831 60 355 5.0 10.0 0.00 0.00 0.00 39 1011.2
20260502200836 60 355 3.0 6.0 0.00 0.00 0.00 40 1011.2
20260502195820 59 31 3.0 10.0 0.00 0.00 0.00 41 1011.3
20260502194833 58 57 2.0 10.0 0.00 0.00 0.00 42 1011.3
20260502193827 58 360 1.0 9.0 0.00 0.00 0.00 42 1011.5
20260502192845 59 337 3.0 10.0 0.00 0.00 0.00 40 1012.1